Time,TemperatureF,DewpointF,PressureIn,WindDirection,WindDirectionDegrees,WindSpeedMPH,WindSpeedGustMPH,Humidity,HourlyPrecipIn,Conditions,Clouds,dailyrainin,SoftwareType,DateUTC
2015-07-29 00:03:00,47.0,23.0,-100.00,North,-9999,0.0,1.0,38,-99.99,,,-99.99,,2015-07-29 06:03:00,
2015-07-29 00:12:00,47.0,23.0,-100.00,North,-9999,0.0,1.0,38,-99.99,,,-99.99,,2015-07-29 06:12:00,
2015-07-29 00:23:00,47.0,23.0,-100.00,North,-9999,0.0,1.0,38,-99.99,,,-99.99,,2015-07-29 06:23:00,
2015-07-29 00:33:00,47.0,23.0,-100.00,North,-9999,0.0,1.0,38,-99.99,,,-99.99,,2015-07-29 06:33:00,
2015-07-29 00:43:00,47.0,23.0,-100.00,North,-9999,0.0,1.0,38,-99.99,,,-99.99,,2015-07-29 06:43:00,
2015-07-29 01:34:00,47.0,22.0,-100.00,North,-9999,0.0,1.0,37,-99.99,,,-99.99,,2015-07-29 07:34:00,
2015-07-29 01:43:00,47.0,22.0,-100.00,North,-9999,0.0,1.0,37,-99.99,,,-99.99,,2015-07-29 07:43:00,
2015-07-29 01:53:00,47.0,25.0,-100.00,North,-9999,0.0,1.0,41,-99.99,,,-99.99,,2015-07-29 07:53:00,
2015-07-29 02:03:00,47.0,25.0,-100.00,North,-9999,0.0,1.0,41,-99.99,,,-99.99,,2015-07-29 08:03:00,
2015-07-29 02:23:00,45.0,25.0,-100.00,North,-9999,0.0,1.0,45,-99.99,,,-99.99,,2015-07-29 08:23:00,
2015-07-29 02:33:00,44.0,26.0,-100.00,North,-9999,0.0,0.0,48,-99.99,,,-99.99,,2015-07-29 08:33:00,
2015-07-29 02:43:00,44.0,26.0,-100.00,North,-9999,0.0,0.0,48,-99.99,,,-99.99,,2015-07-29 08:43:00,
2015-07-29 02:54:00,44.0,26.0,-100.00,North,-9999,0.0,0.0,49,-99.99,,,-99.99,,2015-07-29 08:54:00,
2015-07-29 03:03:00,44.0,27.0,-100.00,North,-9999,0.0,1.0,50,-99.99,,,-99.99,,2015-07-29 09:03:00,
2015-07-29 03:12:00,44.0,27.0,-100.00,North,-9999,0.0,1.0,50,-99.99,,,-99.99,,2015-07-29 09:12:00,
2015-07-29 03:23:00,43.0,27.0,-100.00,North,-9999,0.0,1.0,52,-99.99,,,-99.99,,2015-07-29 09:23:00,
2015-07-29 03:33:00,43.0,27.0,-100.00,North,-9999,0.0,1.0,52,-99.99,,,-99.99,,2015-07-29 09:33:00,
2015-07-29 03:44:00,43.0,27.0,-100.00,North,-9999,0.0,1.0,52,-99.99,,,-99.99,,2015-07-29 09:44:00,
2015-07-29 03:53:00,43.0,27.0,-100.00,North,-9999,0.0,1.0,53,-99.99,,,-99.99,,2015-07-29 09:53:00,
2015-07-29 04:03:00,43.0,28.0,-100.00,North,-9999,0.0,1.0,54,-99.99,,,-99.99,,2015-07-29 10:03:00,
2015-07-29 04:13:00,43.0,28.0,-100.00,North,-9999,0.0,1.0,54,-99.99,,,-99.99,,2015-07-29 10:13:00,
2015-07-29 04:23:00,43.0,28.0,-100.00,SW,219,1.0,1.0,56,-99.99,,,-99.99,,2015-07-29 10:23:00,
2015-07-29 04:34:00,43.0,28.0,-100.00,North,-9999,0.0,1.0,55,-99.99,,,-99.99,,2015-07-29 10:34:00,
2015-07-29 04:46:00,43.0,28.0,-100.00,North,-9999,0.0,1.0,55,-99.99,,,-99.99,,2015-07-29 10:46:00,
2015-07-29 04:53:00,43.0,28.0,-100.00,North,-9999,0.0,1.0,55,-99.99,,,-99.99,,2015-07-29 10:53:00,
2015-07-29 05:03:00,42.0,27.0,-100.00,North,-9999,0.0,1.0,56,-99.99,,,-99.99,,2015-07-29 11:03:00,
2015-07-29 05:13:00,42.0,27.0,-100.00,North,-9999,0.0,1.0,56,-99.99,,,-99.99,,2015-07-29 11:13:00,
2015-07-29 05:23:00,42.0,27.0,-100.00,North,-9999,0.0,1.0,56,-99.99,,,-99.99,,2015-07-29 11:23:00,
2015-07-29 05:33:00,42.0,27.0,-100.00,North,-9999,0.0,1.0,56,-99.99,,,-99.99,,2015-07-29 11:33:00,
2015-07-29 05:43:00,42.0,27.0,-100.00,North,-9999,0.0,1.0,56,-99.99,,,-99.99,,2015-07-29 11:43:00,
2015-07-29 05:53:00,42.0,28.0,-100.00,North,-9999,0.0,1.0,57,-99.99,,,-99.99,,2015-07-29 11:53:00,
2015-07-29 06:03:00,42.0,28.0,-100.00,North,-9999,0.0,1.0,57,-99.99,,,-99.99,,2015-07-29 12:03:00,
2015-07-29 06:13:00,42.0,28.0,-100.00,North,-9999,0.0,1.0,57,-99.99,,,-99.99,,2015-07-29 12:13:00,
2015-07-29 06:23:00,42.0,27.0,-100.00,North,-9999,0.0,0.0,55,-99.99,,,-99.99,,2015-07-29 12:23:00,
2015-07-29 06:33:00,42.0,26.0,-100.00,North,-9999,0.0,1.0,53,-99.99,,,-99.99,,2015-07-29 12:33:00,
2015-07-29 06:43:00,42.0,26.0,-100.00,North,-9999,0.0,-999.0,53,-99.99,,,-99.99,,2015-07-29 12:43:00,
2015-07-29 06:54:00,42.0,25.0,-100.00,North,-9999,0.0,1.0,50,-99.99,,,-99.99,,2015-07-29 12:54:00,
2015-07-29 07:03:00,42.0,26.0,-100.00,North,-9999,0.0,0.0,53,-99.99,,,-99.99,,2015-07-29 13:03:00,
2015-07-29 07:13:00,42.0,26.0,-100.00,North,-9999,0.0,0.0,53,-99.99,,,-99.99,,2015-07-29 13:13:00,
2015-07-29 07:23:00,43.0,26.0,-100.00,North,-9999,0.0,1.0,51,-99.99,,,-99.99,,2015-07-29 13:23:00,
2015-07-29 07:33:00,44.0,27.0,-100.00,North,-9999,0.0,1.0,51,-99.99,,,-99.99,,2015-07-29 13:33:00,
2015-07-29 07:43:00,44.0,27.0,-100.00,North,-9999,0.0,1.0,51,-99.99,,,-99.99,,2015-07-29 13:43:00,
2015-07-29 07:53:00,45.0,27.0,-100.00,North,-9999,0.0,1.0,50,-99.99,,,-99.99,,2015-07-29 13:53:00,
2015-07-29 08:02:00,46.0,28.0,-100.00,North,-9999,0.0,1.0,50,-99.99,,,-99.99,,2015-07-29 14:02:00,
2015-07-29 08:23:00,47.0,28.0,-100.00,North,-9999,0.0,0.0,48,-99.99,,,-99.99,,2015-07-29 14:23:00,
2015-07-29 08:33:00,49.0,34.0,-100.00,North,-9999,0.0,0.0,55,-99.99,,,-99.99,,2015-07-29 14:33:00,
2015-07-29 08:43:00,49.0,34.0,-100.00,North,-9999,0.0,0.0,55,-99.99,,,-99.99,,2015-07-29 14:43:00,
2015-07-29 08:53:00,50.0,36.0,-100.00,North,-9999,0.0,0.0,58,-99.99,,,-99.99,,2015-07-29 14:53:00,
2015-07-29 09:12:00,52.0,33.0,-100.00,North,-9999,0.0,0.0,48,-99.99,,,-99.99,,2015-07-29 15:12:00,
2015-07-29 09:23:00,54.0,34.0,-100.00,North,-9999,0.0,0.0,46,-99.99,,,-99.99,,2015-07-29 15:23:00,
2015-07-29 09:34:00,53.0,34.0,-100.00,North,-9999,0.0,0.0,49,-99.99,,,-99.99,,2015-07-29 15:34:00,
2015-07-29 09:43:00,53.0,34.0,-100.00,North,-9999,0.0,0.0,49,-99.99,,,-99.99,,2015-07-29 15:43:00,
2015-07-29 09:53:00,53.0,32.0,-100.00,North,-9999,0.0,2.0,45,-99.99,,,-99.99,,2015-07-29 15:53:00,
2015-07-29 10:03:00,54.0,35.0,-100.00,North,-9999,-999.9,-999.0,49,-99.99,,,-99.99,,2015-07-29 16:03:00,
2015-07-29 10:13:00,54.0,35.0,-100.00,NNE,22,1.0,3.0,49,-99.99,,,-99.99,,2015-07-29 16:13:00,
2015-07-29 10:23:00,53.0,33.0,-100.00,NNE,14,2.0,4.0,47,-99.99,,,-99.99,,2015-07-29 16:23:00,
2015-07-29 10:35:00,54.0,37.0,-100.00,North,-9999,0.0,2.0,52,-99.99,,,-99.99,,2015-07-29 16:35:00,
2015-07-29 10:54:00,55.0,37.0,-100.00,SW,233,1.0,3.0,51,-99.99,,,-99.99,,2015-07-29 16:54:00,
2015-07-29 11:04:00,56.0,36.0,-100.00,ESE,119,1.0,3.0,47,-99.99,,,-99.99,,2015-07-29 17:04:00,
2015-07-29 11:13:00,56.0,36.0,-100.00,ESE,119,1.0,3.0,47,-99.99,,,-99.99,,2015-07-29 17:13:00,
2015-07-29 11:20:00,59.0,34.0,-100.00,SE,134,1.0,3.0,39,-99.99,,,-99.99,,2015-07-29 17:20:00,
2015-07-29 11:34:00,58.0,34.0,-100.00,North,-9999,0.0,2.0,41,-99.99,,,-99.99,,2015-07-29 17:34:00,
2015-07-29 11:43:00,58.0,34.0,-100.00,North,-9999,0.0,2.0,41,-99.99,,,-99.99,,2015-07-29 17:43:00,
2015-07-29 11:56:00,59.0,34.0,-100.00,SE,134,1.0,3.0,39,-99.99,,,-99.99,,2015-07-29 17:56:00,
2015-07-29 12:03:00,59.0,34.0,-100.00,SE,134,1.0,3.0,39,-99.99,,,-99.99,,2015-07-29 18:03:00,
2015-07-29 12:12:00,59.0,34.0,-100.00,SE,134,1.0,3.0,39,-99.99,,,-99.99,,2015-07-29 18:12:00,
2015-07-29 12:44:00,62.0,33.0,-100.00,North,-9999,0.0,3.0,34,-99.99,,,-99.99,,2015-07-29 18:44:00,
2015-07-29 12:53:00,63.0,33.0,-100.00,North,-9999,0.0,3.0,33,-99.99,,,-99.99,,2015-07-29 18:53:00,
2015-07-29 13:04:00,63.0,32.0,-100.00,North,-9999,0.0,2.0,31,-99.99,,,-99.99,,2015-07-29 19:04:00,
2015-07-29 13:13:00,63.0,32.0,-100.00,North,-9999,0.0,2.0,31,-99.99,,,-99.99,,2015-07-29 19:13:00,
2015-07-29 13:23:00,63.0,29.0,-100.00,North,4,2.0,4.0,27,-99.99,,,-99.99,,2015-07-29 19:23:00,
2015-07-29 13:33:00,62.0,29.0,-100.00,North,352,2.0,4.0,29,-99.99,,,-99.99,,2015-07-29 19:33:00,
2015-07-29 13:44:00,62.0,29.0,-100.00,North,352,2.0,4.0,29,-99.99,,,-99.99,,2015-07-29 19:44:00,
2015-07-29 13:53:00,63.0,28.0,-100.00,North,0,3.0,5.0,26,-99.99,,,-99.99,,2015-07-29 19:53:00,
2015-07-29 14:03:00,64.0,30.0,-100.00,NNE,17,2.0,4.0,28,-99.99,,,-99.99,,2015-07-29 20:03:00,
2015-07-29 14:12:00,64.0,30.0,-100.00,NNE,17,2.0,4.0,28,-99.99,,,-99.99,,2015-07-29 20:12:00,
2015-07-29 14:23:00,64.0,29.0,-100.00,North,358,2.0,5.0,27,-99.99,,,-99.99,,2015-07-29 20:23:00,
2015-07-29 14:33:00,65.0,30.0,-100.00,East,84,1.0,4.0,27,-99.99,,,-99.99,,2015-07-29 20:33:00,
2015-07-29 14:43:00,65.0,30.0,-100.00,East,84,1.0,4.0,27,-99.99,,,-99.99,,2015-07-29 20:43:00,
2015-07-29 14:53:00,66.0,32.0,-100.00,North,357,1.0,3.0,28,-99.99,,,-99.99,,2015-07-29 20:53:00,
2015-07-29 15:03:00,66.0,33.0,-100.00,NNE,31,1.0,3.0,29,-99.99,,,-99.99,,2015-07-29 21:03:00,
2015-07-29 15:12:00,66.0,33.0,-100.00,NNE,31,1.0,3.0,29,-99.99,,,-99.99,,2015-07-29 21:12:00,
2015-07-29 15:23:00,67.0,34.0,-100.00,North,359,1.0,4.0,29,-99.99,,,-99.99,,2015-07-29 21:23:00,
2015-07-29 15:33:00,68.0,34.0,-100.00,NE,46,2.0,4.0,28,-99.99,,,-99.99,,2015-07-29 21:33:00,
2015-07-29 15:46:00,66.0,29.0,-100.00,East,79,2.0,5.0,25,-99.99,,,-99.99,,2015-07-29 21:46:00,
2015-07-29 15:54:00,66.0,29.0,-100.00,North,-9999,-999.9,-999.0,25,-99.99,,,-99.99,,2015-07-29 21:54:00,
2015-07-29 16:03:00,67.0,32.0,-100.00,ESE,120,1.0,3.0,27,-99.99,,,-99.99,,2015-07-29 22:03:00,
2015-07-29 16:13:00,67.0,32.0,-100.00,ESE,120,1.0,3.0,27,-99.99,,,-99.99,,2015-07-29 22:13:00,
2015-07-29 16:23:00,68.0,32.0,-100.00,NE,55,1.0,3.0,26,-99.99,,,-99.99,,2015-07-29 22:23:00,
2015-07-29 16:33:00,67.0,32.0,-100.00,East,88,1.0,3.0,27,-99.99,,,-99.99,,2015-07-29 22:33:00,
2015-07-29 16:48:00,66.0,30.0,-100.00,East,86,2.0,4.0,26,-99.99,,,-99.99,,2015-07-29 22:48:00,
2015-07-29 16:56:00,66.0,30.0,-100.00,East,86,2.0,4.0,26,-99.99,,,-99.99,,2015-07-29 22:56:00,
2015-07-29 17:03:00,67.0,30.0,-100.00,East,84,2.0,5.0,25,-99.99,,,-99.99,,2015-07-29 23:03:00,
2015-07-29 17:13:00,67.0,30.0,-100.00,East,84,2.0,5.0,25,-99.99,,,-99.99,,2015-07-29 23:13:00,
2015-07-29 17:23:00,67.0,31.0,-100.00,ENE,76,2.0,4.0,26,-99.99,,,-99.99,,2015-07-29 23:23:00,
2015-07-29 17:33:00,67.0,30.0,-100.00,East,96,2.0,6.0,25,-99.99,,,-99.99,,2015-07-29 23:33:00,